Location: Unspecified
(0.0000°N, 0.0000°E)
Time: 03:39:47
(UTC+00:00)

Vanguard 1 - Pass Details

Date: 12 December 2023
Orbit: 653 x 3826 km, 34.3° (Epoch: 22 February)

Event Time Altitude Azimuth Distance (km) Brightness Sun altitude
Rises 02:14:26 0° 289° (WNW) 7,888 - -48.7°
Reaches altitude 10° 02:20:50 10° 282° (WNW) 6,649 - -47.4°
Exits shadow 02:37:49 38° 227° (SW) 3,692 12.7 -43.9°
Maximum altitude 02:38:44 38° 221° (SW) 3,608 12.7 -43.7°
Drops below altitude 10° 02:49:55 10° 156° (SSE) 4,195 13.7 -41.3°
Sets 02:52:58 0° 147° (SSE) 4,817 14.3 -40.7°
